{"data":{"norad_id":57294,"epoch":"2026-05-25T00:52:24.218688Z","epoch_age_seconds":68927,"freshness":"FRESH","line1":"1 57294U 23096E   26145.03639142  .00001043  00000+0  47442-4 0  9995","line2":"2 57294  43.0013 152.0117 0001433 278.4892  81.5797 15.27576617159298","mean_motion":15.27576617,"eccentricity":0.0001433,"inclination_deg":43.0013,"raan_deg":152.0117,"arg_perigee_deg":278.4892,"mean_anomaly_deg":81.5797,"bstar":4.7442e-5,"rev_number":15929,"period_min":94.266957478572,"perigee_km":482.07601655819,"apogee_km":484.04243539656,"semimajor_km":6861.1962259774,"source":"CELESTRAK","updated_at":"2026-05-25T13:38:18.283523Z"}}